MPEC 2000-E22: 2000 EA14

The following Minor Planet Electronic Circular may be linked-to from your own Web pages, but must not otherwise be redistributed electronically.


Read MPEC 2000-E21 Read MPEC 2000-E23


M.P.E.C. 2000-E22                                Issued 2000 Mar. 7, 15:28 UT

     The Minor Planet Electronic Circulars contain information on unusual
         minor planets and routine data on comets.  They are published
   on behalf of Commission 20 of the International Astronomical Union by the
          Minor Planet Center, Smithsonian Astrophysical Observatory,
                          Cambridge, MA 02138, U.S.A.

             Prepared using the Tamkin Foundation Computer Network

             BMARSDEN@CFA.HARVARD.EDU or GWILLIAMS@CFA.HARVARD.EDU
          URL http://cfa-www.harvard.edu/iau/mpc.html  ISSN 1523-6714

                                   2000 EA14

Observations:
     K00E14A* C2000 03 03.30135 10 22 06.16 -06 46 38.8          18.5 R      703
     K00E14A  C2000 03 03.31705 10 22 04.37 -06 46 00.9          18.0 R      703
     K00E14A  C2000 03 03.33273 10 22 02.62 -06 45 24.4          18.2 R      703
     K00E14A  C2000 03 03.34838 10 22 00.79 -06 44 46.4          18.0 R      703
     K00E14A  C2000 03 04.23350 10 20 38.80 -06 10 09.0          18.4 R      858
     K00E14A  C2000 03 04.23753 10 20 38.35 -06 09 59.8          18.6 R      858
     K00E14A  C2000 03 04.24125 10 20 37.95 -06 09 50.6          18.3 R      858
     K00E14A  C2000 03 04.24784 10 20 37.16 -06 09 35.6          18.4 R      858
     K00E14A  C2000 03 04.43715 10 20 20.30 -06 01 12.8          18.5 R      474
     K00E14A  C2000 03 04.43810 10 20 20.20 -06 01 10.5          18.2 R      474
     K00E14A  C2000 03 04.44001 10 20 20.00 -06 01 06.1          18.0 R      474
     K00E14A  C2000 03 04.44111 10 20 19.88 -06 01 03.5          18.1 R      474
     K00E14A  C2000 03 04.44204 10 20 19.79 -06 01 01.5          18.0 R      474
     K00E14A  C2000 03 04.90369 10 19 37.56 -05 44 26.2          17.9 R      046
     K00E14A  C2000 03 05.20618 10 19 11.43 -05 32 44.5          18.0 R      858
     K00E14A  C2000 03 05.20971 10 19 11.06 -05 32 36.6          18.1 R      858
     K00E14A  C2000 03 05.21332 10 19 10.69 -05 32 28.5          17.9 R      858
     K00E14A  C2000 03 05.47492 10 18 47.31 -05 21 31.9          17.4 R      474
     K00E14A  C2000 03 05.47590 10 18 47.20 -05 21 29.6          17.4 R      474
     K00E14A  C2000 03 05.47683 10 18 47.10 -05 21 27.5          17.4 R      474
     K00E14A  C2000 03 05.47781 10 18 47.01 -05 21 25.3          17.4 R      474
     K00E14A  C2000 03 05.47887 10 18 46.90 -05 21 22.9          17.3 R      474
     K00E14A  C2000 03 05.47988 10 18 46.79 -05 21 20.7          17.5 R      474
     K00E14A  C2000 03 05.80314 10 18 20.32 -05 10 17.7          17.3 R      046
     K00E14A  C2000 03 05.80416 10 18 20.18 -05 10 15.6                      046
     K00E14A  C2000 03 05.80624 10 18 20.12 -05 10 10.5                      046
     K00E14A  C2000 03 05.80734 10 18 19.89 -05 10 09.1                      046
     K00E14A  C2000 03 06.92751 10 16 46.47 -04 28 38.0          17.9 R      046
     K00E14A  C2000 03 06.93233 10 16 46.05 -04 28 28.6                      046
     K00E14A  C2000 03 07.47931 10 16 03.62 -04 07 27.9          17.8 R      474
     K00E14A  C2000 03 07.48079 10 16 03.49 -04 07 24.7          18.1 R      474
     K00E14A  C2000 03 07.48201 10 16 03.38 -04 07 22.2          17.9 R      474
     K00E14A  C2000 03 07.48325 10 16 03.28 -04 07 19.5          17.8 R      474

Observer details:
046 Klet.  Observers J. Ticha, M. Tichy, Z. Moravec.  0.57-m f/5.2 reflector
    + CCD.
474 Mount John Observatory, Lake Tekapo.  Observers I. P. Griffin, N. Brady.
    1.0-m f/7.7 reflector + CCD.
703 Catalina Sky Survey.  Observer C. W. Hergenrother.  0.41-m f/3 Schmidt
    + CCD.
858 Tebbutt Observatory, Edgewood.  Observer F. B. Zoltowski.  0.3-m f/3.3
    Schmidt-Cassegrain + CCD.

Orbital elements:
2000 EA14                                                            PHA 0.042
Epoch 2000 Feb. 26.0 TT = JDT 2451600.5                 Williams
M  84.70955              (2000.0)            P               Q
n   0.83555052     Peri.  205.94361     +0.64298917     -0.76546103
a   1.1164028      Node   204.06679     +0.71298705     +0.61027162
e   0.2018041      Incl.    3.54086     +0.27966835     +0.20405382
P   1.18           H   21.0           G   0.15
From 33 observations 2000 Mar. 3-7.

Ephemeris:
2000 EA14                a,e,i = 1.12, 0.20, 4                   q = 0.8911
Date    TT    R. A. (2000) Decl.     Delta      r     Elong.  Phase     V
2000 03 07    10 16.68   -04 25.4    0.186    1.172   163.3    14.1    18.5
2000 03 12    10 11.14   -01 34.6    0.204    1.187   159.8    16.8    18.8
2000 03 17    10 07.64   +00 51.4    0.224    1.201   154.9    20.5    19.2
2000 03 22    10 06.02   +02 52.5    0.246    1.215   149.8    24.4    19.5
2000 03 27    10 06.08   +04 30.4    0.270    1.228   144.7    28.0    19.8
2000 04 01    10 07.62   +05 47.3    0.296    1.241   140.0    31.2    20.2
2000 04 06    10 10.47   +06 45.5    0.324    1.253   135.5    34.0    20.5
2000 04 11    10 14.49   +07 27.0    0.354    1.264   131.3    36.5    20.7
2000 04 16    10 19.48   +07 54.1    0.385    1.275   127.5    38.7    21.0
2000 04 21    10 25.28   +08 08.7    0.417    1.285   123.9    40.5    21.2
2000 04 26    10 31.77   +08 12.6    0.450    1.294   120.5    42.1    21.5
2000 05 01    10 38.83   +08 07.1    0.483    1.302   117.3    43.4    21.7
2000 05 06    10 46.42   +07 53.3    0.518    1.310   114.3    44.6    21.9

Gareth V. Williams           (C) Copyright 2000 MPC           M.P.E.C. 2000-E22

Read MPEC 2000-E21 Read MPEC 2000-E23


Our Web policy. Index to the CBAT/MPC/ICQ pages.

MPC